| time (UTC) | temp F | wind direction | speed knots | gust knots | rain 1hr in | rain 24hr in | rain mn in | humidity % | barometer mb |
| 20260504050351 | 51 | 145 | 0.9 | 4.3 | 0.00 | 0.00 | 0.00 | 72 | 1012.2 |
| 20260504044824 | 50 | 182 | 0.9 | 1.7 | 0.00 | 0.00 | 0.00 | 73 | 1012.6 |
| 20260504043328 | 50 | 157 | 0.9 | 1.7 | 0.00 | 0.00 | 0.00 | 73 | 1012.8 |
| 20260504041837 | 50 | 204 | 0.9 | 0.9 | 0.00 | 0.00 | 0.00 | 73 | 1012.9 |
| 20260504040339 | 50 | 158 | 0.0 | 0.9 | 0.00 | 0.00 | 0.00 | 72 | 1013.2 |
| 20260504034825 | 51 | 211 | 0.0 | 0.0 | 0.00 | 0.00 | 0.00 | 72 | 1013.2 |
| 20260504033329 | 51 | 177 | 0.0 | 0.0 | 0.00 | 0.00 | 0.00 | 71 | 1013.1 |
| 20260504031836 | 52 | 177 | 0.0 | 1.7 | 0.00 | 0.00 | 0.00 | 70 | 1013.2 |
| 20260504030339 | 52 | 178 | 0.0 | 1.7 | 0.00 | 0.00 | 0.00 | 68 | 1013.3 |
| 20260504024902 | 53 | 178 | 0.0 | 1.7 | 0.00 | 0.00 | 0.00 | 67 | 1013.2 |
| 20260504023343 | 54 | 186 | 0.0 | 0.9 | 0.00 | 0.00 | 0.00 | 66 | 1013.2 |
| 20260504021832 | 55 | 186 | 0.0 | 1.7 | 0.00 | 0.00 | 0.00 | 62 | 1013.1 |
| 20260504020326 | 56 | 189 | 0.0 | 1.7 | 0.00 | 0.00 | 0.00 | 59 | 1012.8 |
| 20260504014852 | 56 | 189 | 0.0 | 1.7 | 0.00 | 0.00 | 0.00 | 57 | 1012.4 |
| 20260504013326 | 58 | 210 | 0.0 | 1.7 | 0.00 | 0.00 | 0.00 | 55 | 1012.5 |
| 20260504011832 | 60 | 210 | 0.0 | 1.7 | 0.00 | 0.00 | 0.00 | 51 | 1012.4 |
| 20260504010338 | 61 | 214 | 0.9 | 1.7 | 0.00 | 0.00 | 0.00 | 48 | 1012.7 |
| 20260504004824 | 63 | 207 | 0.0 | 3.5 | 0.00 | 0.00 | 0.00 | 46 | 1012.4 |
| 20260504003330 | 64 | 201 | 0.0 | 2.6 | 0.00 | 0.00 | 0.00 | 43 | 1012.4 |
| 20260504001825 | 66 | 197 | 0.0 | 2.6 | 0.00 | 0.00 | 0.00 | 41 | 1012.5 |
| 20260504000330 | 68 | 185 | 1.7 | 5.2 | 0.00 | 0.00 | 0.00 | 38 | 1012.6 |
| 20260503234826 | 70 | 192 | 0.9 | 3.5 | 0.00 | 0.00 | 0.00 | 36 | 1012.9 |
| 20260503233329 | 70 | 238 | 1.7 | 4.3 | 0.00 | 0.00 | 0.00 | 36 | 1013.1 |
| 20260503231824 | 70 | 211 | 2.6 | 7.8 | 0.00 | 0.00 | 0.00 | 35 | 1013.0 |
| 20260503230328 | 71 | 182 | 2.6 | 10.4 | 0.00 | 0.00 | 0.00 | 34 | 1013.0 |
| 20260503224827 | 71 | 188 | 1.7 | 6.1 | 0.00 | 0.00 | 0.00 | 35 | 1013.2 |
| 20260503223330 | 72 | 270 | 1.7 | 9.6 | 0.00 | 0.00 | 0.00 | 33 | 1013.5 |
| 20260503221827 | 72 | 202 | 0.9 | 7.0 | 0.00 | 0.00 | 0.00 | 32 | 1013.8 |
| 20260503220324 | 73 | 193 | 1.7 | 5.2 | 0.00 | 0.00 | 0.00 | 31 | 1013.9 |
| 20260503214825 | 73 | 217 | 1.7 | 6.1 | 0.00 | 0.00 | 0.00 | 34 | 1013.9 |
| 20260503213330 | 72 | 229 | 1.7 | 5.2 | 0.00 | 0.00 | 0.00 | 35 | 1014.2 |
| 20260503211824 | 71 | 247 | 3.5 | 7.8 | 0.00 | 0.00 | 0.00 | 34 | 1014.6 |
| 20260503210326 | 72 | 244 | 0.9 | 5.2 | 0.00 | 0.00 | 0.00 | 31 | 1014.7 |
| 20260503204834 | 71 | 157 | 1.7 | 8.7 | 0.00 | 0.00 | 0.00 | 33 | 1014.9 |
| 20260503203337 | 71 | 221 | 2.6 | 8.7 | 0.00 | 0.00 | 0.00 | 33 | 1015.0 |
| 20260503201840 | 70 | 211 | 3.5 | 8.7 | 0.00 | 0.00 | 0.00 | 32 | 1015.4 |
| 20260503200325 | 70 | 167 | 3.5 | 7.0 | 0.00 | 0.00 | 0.00 | 34 | 1015.7 |
| 20260503194833 | 70 | 269 | 3.5 | 9.6 | 0.00 | 0.00 | 0.00 | 33 | 1015.9 |
| 20260503193334 | 70 | 165 | 2.6 | 9.6 | 0.00 | 0.00 | 0.00 | 34 | 1016.3 |
| 20260503191839 | 70 | 223 | 1.7 | 5.2 | 0.00 | 0.00 | 0.00 | 36 | 1016.3 |
| 20260503190343 | 69 | 65 | 2.6 | 10.4 | 0.00 | 0.00 | 0.00 | 35 | 1016.6 |
| 20260503184830 | 69 | 217 | 3.5 | 6.1 | 0.00 | 0.00 | 0.00 | 37 | 1016.8 |
| 20260503183325 | 68 | 183 | 1.7 | 4.3 | 0.00 | 0.00 | 0.00 | 33 | 1017.1 |
| 20260503181827 | 67 | 185 | 0.9 | 7.8 | 0.00 | 0.00 | 0.00 | 38 | 1017.1 |
| 20260503180330 | 67 | 194 | 2.6 | 7.0 | 0.00 | 0.00 | 0.00 | 35 | 1017.2 |
| 20260503174827 | 67 | 69 | 3.5 | 7.0 | 0.00 | 0.00 | 0.00 | 40 | 1017.4 |
| 20260503173335 | 66 | 194 | 1.7 | 7.0 | 0.00 | 0.00 | 0.00 | 38 | 1017.8 |
| 20260503171835 | 66 | 230 | 1.7 | 4.3 | 0.00 | 0.00 | 0.00 | 39 | 1018.0 |
| 20260503170358 | 65 | 26 | 0.9 | 4.3 | 0.00 | 0.00 | 0.00 | 39 | 1018.1 |
| 20260503150333 | 61 | 57 | 1.7 | 4.3 | 0.00 | 0.00 | 0.00 | 41 | 1019.1 |
| 20260503130328 | 49 | 224 | 0.9 | 1.7 | 0.00 | 0.00 | 0.00 | 86 | 1019.0 |
| 20260503110326 | 35 | 211 | 0.0 | 0.9 | 0.00 | 0.00 | 0.00 | 93 | 1018.0 |
| 20260503090336 | 38 | 220 | 0.0 | 0.0 | 0.00 | 0.00 | 0.00 | 93 | 1017.4 |
| 20260503080339 | 40 | 220 | 0.0 | 0.0 | 0.00 | 0.00 | 0.00 | 93 | 1017.2 |
| 20260503071859 | 40 | 220 | 0.0 | 0.0 | 0.00 | 0.00 | 0.00 | 93 | 1017.2 |
| 20260503070325 | 40 | 220 | 0.0 | 0.0 | 0.00 | 0.00 | 0.00 | 92 | 1017.0 |